Location: *
(40.7873°S, 98.7174°E)
Time: 23:22:36
(UTC+00:00)

Cosmos 1153 Rocket - Pass Details

Date: 14 October 2022
Orbit: 953 x 1007 km, 82.9° (Epoch: 09 December)

Event Time Altitude Azimuth Distance (km) Brightness Sun altitude
Rises 18:12:10 0° 184° (S) 3,673 8.3 -38.9°
Reaches altitude 10° 18:14:45 10° 179° (S) 2,717 7.5 -38.7°
Enters shadow 18:18:38 38° 159° (SSE) 1,446 5.7 -38.5°
